{"data":{"norad_id":55365,"intl_designator":"2023-013AL","name":"STARLINK-5639","alt_names":[],"object_type":"PAYLOAD","status":"ACTIVE","operator":null,"country":"US","launch_date":"2023-01-26","launch_site_code":"AFETR","launch_vehicle":null,"mission":null,"orbit_class":"UNKNOWN","rcs_meters":null,"size_class":null,"mass_kg":null,"dimensions":null,"purposes":["comms"],"wikipedia_slug":null,"has_3d_model":false,"image_url":null,"decayed_at":null,"tle_current":{"epoch":"2026-09-20T03:14:36.012192Z","epoch_age_seconds":128236,"freshness":"FRESH","line1":"1 55365U 23013AL  26263.13513903 -.00000104  00000+0  57452-5 0  9990","line2":"2 55365  43.0014 303.1926 0001151 268.9062  91.1658 15.27574614201200","mean_motion":15.27574614,"eccentricity":0.0001151,"inclination_deg":43.0014,"raan_deg":303.1926,"arg_perigee_deg":268.9062,"mean_anomaly_deg":91.1658,"bstar":5.7452e-6,"rev_number":20120,"period_min":94.267081084132,"perigee_km":482.27549933269,"apogee_km":483.85494808459,"semimajor_km":6861.2022237086,"source":"CELESTRAK","updated_at":"2026-09-21T09:00:33.207941Z"}}}